Time,TemperatureF,DewpointF,PressureIn,WindDirection,WindDirectionDegrees,WindSpeedMPH,WindSpeedGustMPH,Humidity,HourlyPrecipIn,Conditions,Clouds,dailyrainin,SoftwareType,DateUTC
2013-03-11 00:05:00,37.7,24.2,30.24,NW,318,1.0,1.0,58,0.00,,,0.00,Wunderground v.1.15,2013-03-11 06:05:00,
2013-03-11 00:11:00,38.3,24.0,30.24,NW,319,0.0,1.0,56,0.00,,,0.00,Wunderground v.1.15,2013-03-11 06:11:00,
2013-03-11 00:17:00,39.3,24.0,30.24,SW,225,0.0,2.0,54,0.00,,,0.00,Wunderground v.1.15,2013-03-11 06:17:00,
2013-03-11 00:22:00,39.6,24.3,30.23,SW,225,0.0,1.0,54,0.00,,,0.00,Wunderground v.1.15,2013-03-11 06:22:00,
2013-03-11 00:27:00,39.7,24.0,30.23,SW,225,0.0,1.0,53,0.00,,,0.00,Wunderground v.1.15,2013-03-11 06:27:00,
2013-03-11 00:33:00,39.5,24.2,30.23,SW,225,0.0,0.0,54,0.00,,,0.00,Wunderground v.1.15,2013-03-11 06:33:00,
2013-03-11 00:39:00,38.8,24.4,30.23,East,94,0.0,2.0,56,0.00,,,0.00,Wunderground v.1.15,2013-03-11 06:39:00,
2013-03-11 00:45:00,38.5,23.7,30.22,East,97,0.0,1.0,55,0.00,,,0.00,Wunderground v.1.15,2013-03-11 06:45:00,
2013-03-11 00:51:00,38.5,24.1,30.22,East,97,1.0,1.0,56,0.00,,,0.00,Wunderground v.1.15,2013-03-11 06:51:00,
2013-03-11 00:56:00,38.6,23.8,30.22,East,97,0.0,2.0,55,0.00,,,0.00,Wunderground v.1.15,2013-03-11 06:56:00,
2013-03-11 01:03:00,38.1,24.2,30.22,East,80,4.0,5.0,57,0.00,,,0.00,Wunderground v.1.15,2013-03-11 07:03:00,
2013-03-11 01:09:00,36.9,23.9,30.23,East,88,2.0,5.0,59,0.00,,,0.00,Wunderground v.1.15,2013-03-11 07:09:00,
2013-03-11 01:14:00,36.1,23.5,30.23,ESE,115,1.0,3.0,60,0.00,,,0.00,Wunderground v.1.15,2013-03-11 07:14:00,
2013-03-11 01:20:00,35.9,23.7,30.23,ESE,115,0.0,1.0,61,0.00,,,0.00,Wunderground v.1.15,2013-03-11 07:20:00,
2013-03-11 01:25:00,35.5,23.8,30.23,ESE,115,0.0,1.0,62,0.00,,,0.00,Wunderground v.1.15,2013-03-11 07:25:00,
2013-03-11 01:31:00,35.2,23.9,30.23,ESE,115,0.0,0.0,63,0.00,,,0.00,Wunderground v.1.15,2013-03-11 07:31:00,
2013-03-11 01:39:00,34.5,23.6,30.23,ESE,115,1.0,1.0,64,0.00,,,0.00,Wunderground v.1.15,2013-03-11 07:39:00,
2013-03-11 01:45:00,34.0,24.2,30.23,ESE,115,0.0,0.0,67,0.00,,,0.00,Wunderground v.1.15,2013-03-11 07:45:00,
2013-03-11 01:51:00,33.3,23.9,30.23,ESE,115,0.0,0.0,68,0.00,,,0.00,Wunderground v.1.15,2013-03-11 07:51:00,
2013-03-11 01:57:00,32.9,23.8,30.23,ESE,115,0.0,0.0,69,0.00,,,0.00,Wunderground v.1.15,2013-03-11 07:57:00,
2013-03-11 02:02:00,32.5,23.8,30.23,ESE,115,0.0,0.0,70,0.00,,,0.00,Wunderground v.1.15,2013-03-11 08:02:00,
2013-03-11 02:07:00,32.2,23.8,30.24,ESE,115,0.0,0.0,71,0.00,,,0.00,Wunderground v.1.15,2013-03-11 08:07:00,
2013-03-11 02:12:00,32.1,24.1,30.24,ESE,115,0.0,0.0,72,0.00,,,0.00,Wunderground v.1.15,2013-03-11 08:12:00,
2013-03-11 02:18:00,32.0,24.0,30.24,ESE,115,0.0,0.0,72,0.00,,,0.00,Wunderground v.1.15,2013-03-11 08:18:00,
2013-03-11 02:23:00,31.9,24.2,30.23,ESE,115,0.0,0.0,73,0.00,,,0.00,Wunderground v.1.15,2013-03-11 08:23:00,
2013-03-11 02:28:00,31.7,24.0,30.23,ESE,115,0.0,0.0,73,0.00,,,0.00,Wunderground v.1.15,2013-03-11 08:28:00,
2013-03-11 02:33:00,31.6,23.9,30.23,ESE,115,0.0,0.0,73,0.00,,,0.00,Wunderground v.1.15,2013-03-11 08:33:00,
2013-03-11 02:38:00,31.4,23.7,30.23,ESE,115,0.0,0.0,73,0.00,,,0.00,Wunderground v.1.15,2013-03-11 08:38:00,
2013-03-11 02:43:00,31.4,24.1,30.23,ESE,115,1.0,2.0,74,0.00,,,0.00,Wunderground v.1.15,2013-03-11 08:43:00,
2013-03-11 02:49:00,32.2,24.8,30.23,ESE,115,0.0,2.0,74,0.00,,,0.00,Wunderground v.1.15,2013-03-11 08:49:00,
2013-03-11 02:55:00,32.7,25.3,30.22,ESE,115,2.0,3.0,74,0.00,,,0.00,Wunderground v.1.15,2013-03-11 08:55:00,
2013-03-11 02:59:00,33.1,25.4,30.22,ESE,113,1.0,-999.0,73,0.00,,,0.00,Wunderground v.1.15,2013-03-11 08:59:00,
2013-03-11 03:02:00,33.1,25.1,30.22,ESE,115,0.0,2.0,72,0.00,,,0.00,Wunderground v.1.15,2013-03-11 09:02:00,
2013-03-11 03:04:00,33.1,25.1,30.22,ESE,113,2.0,-999.0,72,0.00,,,0.00,Wunderground v.1.15,2013-03-11 09:04:00,
2013-03-11 03:08:00,33.2,25.1,30.22,ESE,115,0.0,3.0,72,0.00,,,0.00,Wunderground v.1.15,2013-03-11 09:08:00,
2013-03-11 03:09:00,33.3,25.2,30.22,N/A,-737280,0.0,-999.0,72,0.00,,,0.00,Wunderground v.1.15,2013-03-11 09:09:00,
2013-03-11 03:13:00,33.3,24.9,30.22,ESE,115,0.0,1.0,71,0.00,,,0.00,Wunderground v.1.15,2013-03-11 09:13:00,
2013-03-11 03:14:00,33.3,24.9,30.22,N/A,-737280,0.0,-999.0,71,0.00,,,0.00,Wunderground v.1.15,2013-03-11 09:14:00,
2013-03-11 03:18:00,33.3,24.9,30.21,ESE,115,0.0,1.0,71,0.00,,,0.00,Wunderground v.1.15,2013-03-11 09:18:00,
2013-03-11 03:19:00,33.2,24.8,30.21,N/A,-737280,0.0,-999.0,71,0.00,,,0.00,Wunderground v.1.15,2013-03-11 09:19:00,
2013-03-11 03:23:00,33.0,24.6,30.21,ESE,115,0.0,0.0,71,0.00,,,0.00,Wunderground v.1.15,2013-03-11 09:23:00,
2013-03-11 03:24:00,32.9,24.5,30.21,N/A,-737280,0.0,-999.0,71,0.00,,,0.00,Wunderground v.1.15,2013-03-11 09:24:00,
2013-03-11 03:28:00,32.5,24.1,30.21,ESE,115,0.0,0.0,71,0.00,,,0.00,Wunderground v.1.15,2013-03-11 09:28:00,
2013-03-11 03:29:00,32.3,24.3,30.21,ESE,113,1.0,-999.0,72,0.00,,,0.00,Wunderground v.1.15,2013-03-11 09:29:00,
2013-03-11 03:34:00,31.7,24.0,30.21,ESE,115,0.0,2.0,73,0.00,,,0.00,Wunderground v.1.15,2013-03-11 09:34:00,
2013-03-11 03:39:00,31.3,24.0,30.20,ESE,115,0.0,2.0,74,0.00,,,0.00,Wunderground v.1.15,2013-03-11 09:39:00,
2013-03-11 03:44:00,31.1,24.1,30.20,ESE,115,0.0,0.0,75,0.00,,,0.00,Wunderground v.1.15,2013-03-11 09:44:00,
2013-03-11 03:49:00,31.0,24.0,30.20,N/A,-737280,0.0,-999.0,75,0.00,,,0.00,Wunderground v.1.15,2013-03-11 09:49:00,
2013-03-11 03:50:00,31.0,24.0,30.20,ESE,115,0.0,0.0,75,0.00,,,0.00,Wunderground v.1.15,2013-03-11 09:50:00,
2013-03-11 03:54:00,30.9,23.9,30.21,N/A,-737280,0.0,-999.0,75,0.00,,,0.00,Wunderground v.1.15,2013-03-11 09:54:00,
2013-03-11 03:55:00,30.8,24.1,30.21,ESE,115,0.0,0.0,76,0.00,,,0.00,Wunderground v.1.15,2013-03-11 09:55:00,
2013-03-11 03:59:00,30.6,23.9,30.20,N/A,-737280,0.0,-999.0,76,0.00,,,0.00,Wunderground v.1.15,2013-03-11 09:59:00,
2013-03-11 04:00:00,30.6,23.9,30.20,ESE,115,0.0,0.0,76,0.00,,,0.00,Wunderground v.1.15,2013-03-11 10:00:00,
2013-03-11 04:04:00,30.3,23.6,30.21,N/A,-737280,0.0,-999.0,76,0.00,,,0.00,Wunderground v.1.15,2013-03-11 10:04:00,
2013-03-11 04:06:00,30.2,23.5,30.21,ESE,115,0.0,0.0,76,0.00,,,0.00,Wunderground v.1.15,2013-03-11 10:06:00,
2013-03-11 04:09:00,30.1,23.8,30.21,N/A,-737280,0.0,-999.0,77,0.00,,,0.00,Wunderground v.1.15,2013-03-11 10:09:00,
2013-03-11 04:11:00,30.0,23.7,30.21,ESE,115,0.0,0.0,77,0.00,,,0.00,Wunderground v.1.15,2013-03-11 10:11:00,
2013-03-11 04:14:00,29.9,23.6,30.21,N/A,-737280,0.0,-999.0,77,0.00,,,0.00,Wunderground v.1.15,2013-03-11 10:14:00,
2013-03-11 04:17:00,29.9,23.6,30.21,ESE,115,0.0,0.0,77,0.00,,,0.00,Wunderground v.1.15,2013-03-11 10:17:00,
2013-03-11 04:19:00,29.8,23.5,30.21,N/A,-737280,0.0,-999.0,77,0.00,,,0.00,Wunderground v.1.15,2013-03-11 10:19:00,
2013-03-11 04:24:00,29.7,23.4,30.21,ESE,115,0.0,0.0,77,0.00,,,0.00,Wunderground v.1.15,2013-03-11 10:24:00,
2013-03-11 04:29:00,29.6,23.6,30.21,N/A,-737280,0.0,-999.0,78,0.00,,,0.00,Wunderground v.1.15,2013-03-11 10:29:00,
2013-03-11 04:30:00,29.6,23.6,30.21,ESE,115,0.0,0.0,78,0.00,,,0.00,Wunderground v.1.15,2013-03-11 10:30:00,
2013-03-11 04:34:00,29.5,23.5,30.21,N/A,-737280,0.0,-999.0,78,0.00,,,0.00,Wunderground v.1.15,2013-03-11 10:34:00,
2013-03-11 04:35:00,29.5,23.5,30.21,ESE,115,0.0,0.0,78,0.00,,,0.00,Wunderground v.1.15,2013-03-11 10:35:00,
2013-03-11 04:39:00,29.6,23.9,30.21,N/A,-737280,0.0,-999.0,79,0.00,,,0.00,Wunderground v.1.15,2013-03-11 10:39:00,
2013-03-11 04:40:00,29.6,23.9,30.21,ESE,115,0.0,0.0,79,0.00,,,0.00,Wunderground v.1.15,2013-03-11 10:40:00,
2013-03-11 04:44:00,29.5,23.5,30.20,N/A,-737280,0.0,-999.0,78,0.00,,,0.00,Wunderground v.1.15,2013-03-11 10:44:00,
2013-03-11 04:45:00,29.4,23.4,30.20,ESE,115,0.0,0.0,78,0.00,,,0.00,Wunderground v.1.15,2013-03-11 10:45:00,
2013-03-11 04:49:00,29.3,23.6,30.20,N/A,-737280,0.0,-999.0,79,0.00,,,0.00,Wunderground v.1.15,2013-03-11 10:49:00,
2013-03-11 04:52:00,29.3,23.6,30.20,ESE,115,0.0,0.0,79,0.00,,,0.00,Wunderground v.1.15,2013-03-11 10:52:00,
2013-03-11 04:54:00,29.2,23.5,30.20,N/A,-737280,0.0,-999.0,79,0.00,,,0.00,Wunderground v.1.15,2013-03-11 10:54:00,
2013-03-11 04:57:00,29.2,23.5,30.20,ESE,115,0.0,0.0,79,0.00,,,0.00,Wunderground v.1.15,2013-03-11 10:57:00,
2013-03-11 04:59:00,29.2,23.8,30.20,ESE,113,1.0,-999.0,80,0.00,,,0.00,Wunderground v.1.15,2013-03-11 10:59:00,
2013-03-11 05:03:00,29.2,23.8,30.20,ESE,115,0.0,1.0,80,0.00,,,0.00,Wunderground v.1.15,2013-03-11 11:03:00,
2013-03-11 05:04:00,29.3,23.9,30.20,N/A,-737280,0.0,-999.0,80,0.00,,,0.00,Wunderground v.1.15,2013-03-11 11:04:00,
2013-03-11 05:08:00,29.6,24.2,30.20,ESE,115,2.0,2.0,80,0.00,,,0.00,Wunderground v.1.15,2013-03-11 11:08:00,
2013-03-11 05:09:00,29.7,24.3,30.20,ESE,113,1.0,-999.0,80,0.00,,,0.00,Wunderground v.1.15,2013-03-11 11:09:00,
2013-03-11 05:13:00,29.9,24.5,30.20,ESE,115,0.0,1.0,80,0.00,,,0.00,Wunderground v.1.15,2013-03-11 11:13:00,
2013-03-11 05:14:00,30.0,24.3,30.20,ESE,113,0.0,-999.0,79,0.00,,,0.00,Wunderground v.1.15,2013-03-11 11:14:00,
2013-03-11 05:18:00,30.2,24.5,30.21,ESE,115,0.0,1.0,79,0.00,,,0.00,Wunderground v.1.15,2013-03-11 11:18:00,
2013-03-11 05:19:00,30.2,24.2,30.20,N/A,-737280,0.0,-999.0,78,0.00,,,0.00,Wunderground v.1.15,2013-03-11 11:19:00,
2013-03-11 05:23:00,30.3,24.3,30.20,ESE,115,0.0,0.0,78,0.00,,,0.00,Wunderground v.1.15,2013-03-11 11:23:00,
2013-03-11 05:24:00,30.3,24.3,30.20,N/A,-737280,0.0,-999.0,78,0.00,,,0.00,Wunderground v.1.15,2013-03-11 11:24:00,
2013-03-11 05:28:00,30.5,24.5,30.21,ESE,115,0.0,1.0,78,0.00,,,0.00,Wunderground v.1.15,2013-03-11 11:28:00,
2013-03-11 05:29:00,30.6,24.2,30.21,N/A,-737280,0.0,-999.0,77,0.00,,,0.00,Wunderground v.1.15,2013-03-11 11:29:00,
2013-03-11 05:33:00,30.7,24.3,30.21,ESE,115,0.0,2.0,77,0.00,,,0.00,Wunderground v.1.15,2013-03-11 11:33:00,
2013-03-11 05:34:00,30.7,24.3,30.21,ESE,113,1.0,-999.0,77,0.00,,,0.00,Wunderground v.1.15,2013-03-11 11:34:00,
2013-03-11 05:39:00,30.8,24.4,30.21,ESE,115,2.0,2.0,77,0.00,,,0.00,Wunderground v.1.15,2013-03-11 11:39:00,
2013-03-11 05:44:00,31.2,24.2,30.22,ESE,115,0.0,1.0,75,0.00,,,0.00,Wunderground v.1.15,2013-03-11 11:44:00,
2013-03-11 05:49:00,31.4,24.1,30.22,ESE,115,0.0,2.0,74,0.00,,,0.00,Wunderground v.1.15,2013-03-11 11:49:00,
2013-03-11 05:54:00,31.3,23.6,30.21,ESE,113,0.0,-999.0,73,0.00,,,0.00,Wunderground v.1.15,2013-03-11 11:54:00,
2013-03-11 05:55:00,31.2,23.5,30.21,ESE,115,1.0,3.0,73,0.00,,,0.00,Wunderground v.1.15,2013-03-11 11:55:00,
2013-03-11 05:59:00,31.0,23.7,30.22,N/A,-737280,0.0,-999.0,74,0.00,,,0.00,Wunderground v.1.15,2013-03-11 11:59:00,
2013-03-11 06:00:00,31.0,23.7,30.22,ESE,117,0.0,0.0,74,0.00,,,0.00,Wunderground v.1.15,2013-03-11 12:00:00,
2013-03-11 06:04:00,30.6,23.3,30.22,N/A,-737280,0.0,-999.0,74,0.00,,,0.00,Wunderground v.1.15,2013-03-11 12:04:00,
2013-03-11 06:05:00,30.6,23.3,30.22,ESE,117,0.0,0.0,74,0.00,,,0.00,Wunderground v.1.15,2013-03-11 12:05:00,
2013-03-11 06:09:00,30.1,22.8,30.22,ESE,113,1.0,-999.0,74,0.00,,,0.00,Wunderground v.1.15,2013-03-11 12:09:00,
2013-03-11 06:10:00,30.1,23.1,30.22,ESE,117,0.0,0.0,75,0.00,,,0.00,Wunderground v.1.15,2013-03-11 12:10:00,
2013-03-11 06:14:00,29.7,22.7,30.22,N/A,-737280,0.0,-999.0,75,0.00,,,0.00,Wunderground v.1.15,2013-03-11 12:14:00,
2013-03-11 06:15:00,29.6,22.6,30.22,ESE,117,0.0,0.0,75,0.00,,,0.00,Wunderground v.1.15,2013-03-11 12:15:00,
2013-03-11 06:19:00,29.1,22.5,30.22,N/A,-737280,0.0,-999.0,76,0.00,,,0.00,Wunderground v.1.15,2013-03-11 12:19:00,
2013-03-11 06:20:00,29.0,22.4,30.22,ESE,117,0.0,0.0,76,0.00,,,0.00,Wunderground v.1.15,2013-03-11 12:20:00,
2013-03-11 06:24:00,28.8,22.5,30.22,N/A,-737280,0.0,-999.0,77,0.00,,,0.00,Wunderground v.1.15,2013-03-11 12:24:00,
2013-03-11 06:25:00,28.8,22.5,30.22,ESE,117,0.0,1.0,77,0.00,,,0.00,Wunderground v.1.15,2013-03-11 12:25:00,
2013-03-11 06:29:00,28.5,22.2,30.21,N/A,-737280,0.0,-999.0,77,0.00,,,0.00,Wunderground v.1.15,2013-03-11 12:29:00,
2013-03-11 06:31:00,28.4,22.4,30.22,ESE,117,0.0,0.0,78,0.00,,,0.00,Wunderground v.1.15,2013-03-11 12:31:00,
2013-03-11 06:34:00,28.3,22.3,30.22,ESE,113,0.0,-999.0,78,0.00,,,0.00,Wunderground v.1.15,2013-03-11 12:34:00,
2013-03-11 06:37:00,28.2,22.2,30.22,ESE,117,0.0,1.0,78,0.00,,,0.00,Wunderground v.1.15,2013-03-11 12:37:00,
2013-03-11 06:39:00,28.2,22.5,30.22,N/A,-737280,0.0,-999.0,79,0.00,,,0.00,Wunderground v.1.15,2013-03-11 12:39:00,
2013-03-11 06:42:00,28.2,22.5,30.22,ESE,117,0.0,0.0,79,0.00,,,0.00,Wunderground v.1.15,2013-03-11 12:42:00,
2013-03-11 06:44:00,28.3,22.9,30.22,N/A,-737280,0.0,-999.0,80,0.00,,,0.00,Wunderground v.1.15,2013-03-11 12:44:00,
2013-03-11 06:47:00,28.3,22.9,30.22,ESE,117,0.0,1.0,80,0.00,,,0.00,Wunderground v.1.15,2013-03-11 12:47:00,
2013-03-11 06:49:00,28.3,22.9,30.23,N/A,-737280,0.0,-999.0,80,0.00,,,0.00,Wunderground v.1.15,2013-03-11 12:49:00,
2013-03-11 06:52:00,28.2,22.8,30.23,ESE,117,0.0,0.0,80,0.00,,,0.00,Wunderground v.1.15,2013-03-11 12:52:00,
2013-03-11 06:54:00,28.2,22.8,30.23,ESE,113,0.0,-999.0,80,0.00,,,0.00,Wunderground v.1.15,2013-03-11 12:54:00,
2013-03-11 06:57:00,28.1,22.7,30.23,ESE,117,0.0,0.0,80,0.00,,,0.00,Wunderground v.1.15,2013-03-11 12:57:00,
2013-03-11 06:59:00,28.1,22.7,30.23,N/A,-737280,0.0,-999.0,80,0.00,,,0.00,Wunderground v.1.15,2013-03-11 12:59:00,
2013-03-11 07:02:00,27.9,22.5,30.23,ESE,117,0.0,0.0,80,0.00,,,0.00,Wunderground v.1.15,2013-03-11 13:02:00,
2013-03-11 07:04:00,27.8,22.4,30.23,N/A,-737280,0.0,-999.0,80,0.00,,,0.00,Wunderground v.1.15,2013-03-11 13:04:00,
2013-03-11 07:07:00,27.6,22.2,30.23,ESE,117,0.0,0.0,80,0.00,,,0.00,Wunderground v.1.15,2013-03-11 13:07:00,
2013-03-11 07:09:00,27.6,22.2,30.23,N/A,-737280,0.0,-999.0,80,0.00,,,0.00,Wunderground v.1.15,2013-03-11 13:09:00,
2013-03-11 07:12:00,27.5,22.4,30.23,ESE,117,0.0,0.0,81,0.00,,,0.00,Wunderground v.1.15,2013-03-11 13:12:00,
2013-03-11 07:14:00,27.4,22.3,30.23,N/A,-737280,0.0,-999.0,81,0.00,,,0.00,Wunderground v.1.15,2013-03-11 13:14:00,
2013-03-11 07:17:00,27.4,22.3,30.23,ESE,117,0.0,0.0,81,0.00,,,0.00,Wunderground v.1.15,2013-03-11 13:17:00,
2013-03-11 07:19:00,27.2,22.1,30.23,ESE,113,2.0,-999.0,81,0.00,,,0.00,Wunderground v.1.15,2013-03-11 13:19:00,
2013-03-11 07:22:00,27.1,22.0,30.23,ESE,117,0.0,2.0,81,0.00,,,0.00,Wunderground v.1.15,2013-03-11 13:22:00,
2013-03-11 07:24:00,27.1,22.0,30.22,N/A,-737280,0.0,-999.0,81,0.00,,,0.00,Wunderground v.1.15,2013-03-11 13:24:00,
2013-03-11 07:27:00,26.9,21.8,30.22,ESE,117,0.0,2.0,81,0.00,,,0.00,Wunderground v.1.15,2013-03-11 13:27:00,
2013-03-11 07:29:00,26.9,21.8,30.22,N/A,-737280,0.0,-999.0,81,0.00,,,0.00,Wunderground v.1.15,2013-03-11 13:29:00,
2013-03-11 07:32:00,26.9,22.1,30.23,ESE,117,0.0,0.0,82,0.00,,,0.00,Wunderground v.1.15,2013-03-11 13:32:00,
2013-03-11 07:34:00,27.0,22.2,30.23,N/A,-737280,0.0,-999.0,82,0.00,,,0.00,Wunderground v.1.15,2013-03-11 13:34:00,
2013-03-11 07:37:00,27.3,22.8,30.23,ESE,117,0.0,1.0,83,0.00,,,0.00,Wunderground v.1.15,2013-03-11 13:37:00,
2013-03-11 07:39:00,27.5,23.0,30.24,N/A,-737280,0.0,-999.0,83,0.00,,,0.00,Wunderground v.1.15,2013-03-11 13:39:00,
2013-03-11 07:43:00,27.4,22.6,30.23,ESE,117,0.0,0.0,82,0.00,,,0.00,Wunderground v.1.15,2013-03-11 13:43:00,
2013-03-11 07:44:00,27.3,22.5,30.23,N/A,-737280,0.0,-999.0,82,0.00,,,0.00,Wunderground v.1.15,2013-03-11 13:44:00,
2013-03-11 07:48:00,27.4,22.6,30.23,ESE,117,0.0,0.0,82,0.00,,,0.00,Wunderground v.1.15,2013-03-11 13:48:00,
2013-03-11 07:49:00,27.4,22.6,30.23,N/A,-737280,0.0,-999.0,82,0.00,,,0.00,Wunderground v.1.15,2013-03-11 13:49:00,
2013-03-11 07:53:00,27.4,22.6,30.23,ESE,117,0.0,2.0,82,0.00,,,0.00,Wunderground v.1.15,2013-03-11 13:53:00,
2013-03-11 07:54:00,27.4,22.6,30.23,N/A,-737280,0.0,-999.0,82,0.00,,,0.00,Wunderground v.1.15,2013-03-11 13:54:00,
2013-03-11 07:58:00,27.5,22.7,30.23,ESE,117,0.0,2.0,82,0.00,,,0.00,Wunderground v.1.15,2013-03-11 13:58:00,
2013-03-11 07:59:00,27.6,23.1,30.23,N/A,-737280,0.0,-999.0,83,0.00,,,0.00,Wunderground v.1.15,2013-03-11 13:59:00,
2013-03-11 08:04:00,27.8,23.3,30.22,ESE,117,0.0,1.0,83,0.00,,,0.00,Wunderground v.1.15,2013-03-11 14:04:00,
2013-03-11 08:09:00,28.1,23.6,30.23,ESE,117,0.0,1.0,83,0.00,,,0.00,Wunderground v.1.15,2013-03-11 14:09:00,
2013-03-11 08:14:00,29.0,24.5,30.23,South,177,0.0,1.0,83,0.00,,,0.00,Wunderground v.1.15,2013-03-11 14:14:00,
2013-03-11 08:19:00,29.8,25.0,30.24,ESE,113,1.0,-999.0,82,0.00,,,0.00,Wunderground v.1.15,2013-03-11 14:19:00,
2013-03-11 08:20:00,29.9,25.1,30.24,ESE,103,1.0,1.0,82,0.00,,,0.00,Wunderground v.1.15,2013-03-11 14:20:00,
2013-03-11 08:24:00,30.5,25.1,30.24,ESE,113,1.0,-999.0,80,0.00,,,0.00,Wunderground v.1.15,2013-03-11 14:24:00,
2013-03-11 08:25:00,30.6,24.9,30.24,ESE,103,0.0,2.0,79,0.00,,,0.00,Wunderground v.1.15,2013-03-11 14:25:00,
2013-03-11 08:29:00,31.0,24.6,30.24,ESE,113,1.0,-999.0,77,0.00,,,0.00,Wunderground v.1.15,2013-03-11 14:29:00,
2013-03-11 08:31:00,31.3,24.6,30.24,ESE,104,1.0,2.0,76,0.00,,,0.00,Wunderground v.1.15,2013-03-11 14:31:00,
2013-03-11 08:34:00,31.5,24.5,30.24,ESE,113,1.0,-999.0,75,0.00,,,0.00,Wunderground v.1.15,2013-03-11 14:34:00,
2013-03-11 08:37:00,31.6,24.6,30.24,ESE,104,0.0,2.0,75,0.00,,,0.00,Wunderground v.1.15,2013-03-11 14:37:00,
2013-03-11 08:39:00,31.8,24.5,30.24,N/A,-737280,0.0,-999.0,74,0.00,,,0.00,Wunderground v.1.15,2013-03-11 14:39:00,
2013-03-11 08:43:00,32.2,24.8,30.24,ESE,104,2.0,2.0,74,0.00,,,0.00,Wunderground v.1.15,2013-03-11 14:43:00,
2013-03-11 08:44:00,32.4,25.0,30.24,ESE,113,1.0,-999.0,74,0.00,,,0.00,Wunderground v.1.15,2013-03-11 14:44:00,
2013-03-11 08:48:00,32.8,25.4,30.25,ESE,104,0.0,2.0,74,0.00,,,0.00,Wunderground v.1.15,2013-03-11 14:48:00,
2013-03-11 08:49:00,32.9,25.2,30.25,N/A,-737280,0.0,-999.0,73,0.00,,,0.00,Wunderground v.1.15,2013-03-11 14:49:00,
2013-03-11 08:54:00,33.4,25.7,30.25,ESE,104,0.0,1.0,73,0.00,,,0.00,Wunderground v.1.15,2013-03-11 14:54:00,
2013-03-11 08:59:00,33.7,25.6,30.25,ESE,104,0.0,1.0,72,0.00,,,0.00,Wunderground v.1.15,2013-03-11 14:59:00,
2013-03-11 09:04:00,34.0,25.6,30.24,ESE,104,0.0,0.0,71,0.00,,,0.00,Wunderground v.1.15,2013-03-11 15:04:00,
2013-03-11 09:09:00,34.4,26.0,30.24,ESE,113,1.0,-999.0,71,0.00,,,0.00,Wunderground v.1.15,2013-03-11 15:09:00,
2013-03-11 09:10:00,34.4,26.0,30.24,ESE,103,0.0,1.0,71,0.00,,,0.00,Wunderground v.1.15,2013-03-11 15:10:00,
2013-03-11 09:14:00,34.6,26.2,30.24,ESE,113,1.0,-999.0,71,0.00,,,0.00,Wunderground v.1.15,2013-03-11 15:14:00,
2013-03-11 09:15:00,34.8,26.4,30.24,East,99,2.0,2.0,71,0.00,,,0.00,Wunderground v.1.15,2013-03-11 15:15:00,
2013-03-11 09:19:00,35.2,26.4,30.24,N/A,-737280,0.0,-999.0,70,0.00,,,0.00,Wunderground v.1.15,2013-03-11 15:19:00,
2013-03-11 09:20:00,35.3,26.5,30.24,East,99,0.0,1.0,70,0.00,,,0.00,Wunderground v.1.15,2013-03-11 15:20:00,
2013-03-11 09:24:00,35.6,26.1,30.24,East,90,1.0,-999.0,68,0.00,,,0.00,Wunderground v.1.15,2013-03-11 15:24:00,
2013-03-11 09:25:00,35.6,26.1,30.24,NE,36,2.0,2.0,68,0.00,,,0.00,Wunderground v.1.15,2013-03-11 15:25:00,
2013-03-11 09:29:00,35.7,25.8,30.25,N/A,-737280,0.0,-999.0,67,0.00,,,0.00,Wunderground v.1.15,2013-03-11 15:29:00,
2013-03-11 09:30:00,35.7,25.8,30.25,NE,36,2.0,3.0,67,0.00,,,0.00,Wunderground v.1.15,2013-03-11 15:30:00,
2013-03-11 09:34:00,35.9,26.4,30.24,NE,45,2.0,-999.0,68,0.00,,,0.00,Wunderground v.1.15,2013-03-11 15:34:00,
2013-03-11 09:36:00,36.0,26.5,30.25,NE,42,3.0,3.0,68,0.00,,,0.00,Wunderground v.1.15,2013-03-11 15:36:00,
2013-03-11 09:39:00,36.2,26.3,30.25,NE,45,2.0,-999.0,67,0.00,,,0.00,Wunderground v.1.15,2013-03-11 15:39:00,
2013-03-11 09:42:00,36.3,26.4,30.24,NE,45,2.0,2.0,67,0.00,,,0.00,Wunderground v.1.15,2013-03-11 15:42:00,
2013-03-11 09:44:00,36.4,26.5,30.24,NE,45,3.0,-999.0,67,0.00,,,0.00,Wunderground v.1.15,2013-03-11 15:44:00,
2013-03-11 09:47:00,36.5,26.2,30.24,ENE,57,4.0,4.0,66,0.00,,,0.00,Wunderground v.1.15,2013-03-11 15:47:00,
2013-03-11 09:49:00,36.4,26.1,30.24,ENE,68,2.0,-999.0,66,0.00,,,0.00,Wunderground v.1.15,2013-03-11 15:49:00,
2013-03-11 09:52:00,36.5,26.2,30.24,ENE,57,1.0,2.0,66,0.00,,,0.00,Wunderground v.1.15,2013-03-11 15:52:00,
2013-03-11 09:54:00,36.6,26.3,30.24,ENE,68,1.0,-999.0,66,0.00,,,0.00,Wunderground v.1.15,2013-03-11 15:54:00,
2013-03-11 09:58:00,36.9,26.2,30.24,ENE,60,1.0,4.0,65,0.00,,,0.00,Wunderground v.1.15,2013-03-11 15:58:00,
2013-03-11 09:59:00,37.0,26.7,30.24,ENE,68,3.0,-999.0,66,0.00,,,0.00,Wunderground v.1.15,2013-03-11 15:59:00,
2013-03-11 10:04:00,37.4,26.3,30.25,ENE,65,2.0,3.0,64,0.00,,,0.00,Wunderground v.1.15,2013-03-11 16:04:00,
2013-03-11 10:09:00,37.7,26.2,30.24,ENE,66,1.0,3.0,63,0.00,,,0.00,Wunderground v.1.15,2013-03-11 16:09:00,
2013-03-11 10:14:00,38.1,27.0,30.24,ENE,66,1.0,3.0,64,0.00,,,0.00,Wunderground v.1.15,2013-03-11 16:14:00,
2013-03-11 10:19:00,38.4,26.5,30.24,ENE,68,3.0,-999.0,62,0.00,,,0.00,Wunderground v.1.15,2013-03-11 16:19:00,
2013-03-11 10:20:00,38.5,27.0,30.24,ENE,66,2.0,2.0,63,0.00,,,0.00,Wunderground v.1.15,2013-03-11 16:20:00,
2013-03-11 10:24:00,38.6,26.3,30.24,ESE,113,3.0,-999.0,61,0.00,,,0.00,Wunderground v.1.15,2013-03-11 16:24:00,
2013-03-11 10:25:00,38.6,26.7,30.24,ESE,111,0.0,5.0,62,0.00,,,0.00,Wunderground v.1.15,2013-03-11 16:25:00,
2013-03-11 10:29:00,38.8,26.5,30.24,N/A,-737280,0.0,-999.0,61,0.00,,,0.00,Wunderground v.1.15,2013-03-11 16:29:00,
2013-03-11 10:31:00,38.9,26.2,30.25,ESE,111,0.0,2.0,60,0.00,,,0.00,Wunderground v.1.15,2013-03-11 16:31:00,
2013-03-11 10:34:00,39.5,27.2,30.25,ESE,113,2.0,-999.0,61,0.00,,,0.00,Wunderground v.1.15,2013-03-11 16:34:00,
2013-03-11 10:36:00,39.6,26.4,30.25,ESE,111,2.0,3.0,59,0.00,,,0.00,Wunderground v.1.15,2013-03-11 16:36:00,
2013-03-11 10:39:00,40.0,27.2,30.24,ESE,113,0.0,-999.0,60,0.00,,,0.00,Wunderground v.1.15,2013-03-11 16:39:00,
2013-03-11 10:40:00,40.2,27.4,30.24,ESE,111,1.0,1.0,60,0.00,,,0.00,Wunderground v.1.15,2013-03-11 16:40:00,
2013-03-11 10:44:00,41.1,27.9,30.25,ENE,68,3.0,-999.0,59,0.00,,,0.00,Wunderground v.1.15,2013-03-11 16:44:00,
2013-03-11 10:46:00,41.4,27.3,30.25,ENE,73,0.0,4.0,57,0.00,,,0.00,Wunderground v.1.15,2013-03-11 16:46:00,
2013-03-11 10:49:00,41.7,27.6,30.25,ENE,68,1.0,-999.0,57,0.00,,,0.00,Wunderground v.1.15,2013-03-11 16:49:00,
2013-03-11 10:53:00,42.0,27.4,30.25,ENE,73,1.0,1.0,56,0.00,,,0.00,Wunderground v.1.15,2013-03-11 16:53:00,
2013-03-11 10:54:00,42.1,27.5,30.25,ENE,68,1.0,-999.0,56,0.00,,,0.00,Wunderground v.1.15,2013-03-11 16:54:00,
2013-03-11 10:58:00,42.4,27.4,30.25,ENE,57,3.0,3.0,55,0.00,,,0.00,Wunderground v.1.15,2013-03-11 16:58:00,
2013-03-11 10:59:00,42.4,26.9,30.25,ENE,68,2.0,-999.0,54,0.00,,,0.00,Wunderground v.1.15,2013-03-11 16:59:00,
2013-03-11 11:03:00,42.4,26.9,30.25,ENE,64,4.0,4.0,54,0.00,,,0.00,Wunderground v.1.15,2013-03-11 17:03:00,
2013-03-11 11:04:00,42.4,26.5,30.25,ENE,68,4.0,-999.0,53,0.00,,,0.00,Wunderground v.1.15,2013-03-11 17:04:00,
2013-03-11 11:09:00,42.3,26.4,30.25,NE,55,6.0,6.0,53,0.00,,,0.00,Wunderground v.1.15,2013-03-11 17:09:00,
2013-03-11 11:14:00,42.7,26.3,30.24,ESE,111,3.0,3.0,52,0.00,,,0.00,Wunderground v.1.15,2013-03-11 17:14:00,
2013-03-11 11:19:00,43.1,26.7,30.24,ESE,108,3.0,4.0,52,0.00,,,0.00,Wunderground v.1.15,2013-03-11 17:19:00,
2013-03-11 11:24:00,43.4,26.0,30.24,N/A,-737280,0.0,-999.0,50,0.00,,,0.00,Wunderground v.1.15,2013-03-11 17:24:00,
2013-03-11 11:25:00,43.5,26.1,30.24,ESE,106,0.0,4.0,50,0.00,,,0.00,Wunderground v.1.15,2013-03-11 17:25:00,
2013-03-11 11:29:00,43.6,26.2,30.24,ESE,113,1.0,-999.0,50,0.00,,,0.00,Wunderground v.1.15,2013-03-11 17:29:00,
2013-03-11 11:30:00,43.6,26.2,30.24,ESE,106,0.0,1.0,50,0.00,,,0.00,Wunderground v.1.15,2013-03-11 17:30:00,
2013-03-11 11:34:00,44.0,26.5,30.23,ESE,113,2.0,-999.0,50,0.00,,,0.00,Wunderground v.1.15,2013-03-11 17:34:00,
2013-03-11 11:37:00,44.2,26.2,30.23,East,98,0.0,4.0,49,0.00,,,0.00,Wunderground v.1.15,2013-03-11 17:37:00,
2013-03-11 11:39:00,44.5,26.5,30.23,NNW,338,2.0,-999.0,49,0.00,,,0.00,Wunderground v.1.15,2013-03-11 17:39:00,
2013-03-11 11:42:00,45.0,27.0,30.23,North,350,1.0,4.0,49,0.00,,,0.00,Wunderground v.1.15,2013-03-11 17:42:00,
2013-03-11 11:44:00,45.5,26.4,30.23,North,0,0.0,-999.0,47,0.00,,,0.00,Wunderground v.1.15,2013-03-11 17:44:00,
2013-03-11 11:48:00,46.0,26.9,30.23,North,349,0.0,4.0,47,0.00,,,0.00,Wunderground v.1.15,2013-03-11 17:48:00,
2013-03-11 11:49:00,46.1,26.4,30.23,SW,225,1.0,-999.0,46,0.00,,,0.00,Wunderground v.1.15,2013-03-11 17:49:00,
2013-03-11 11:53:00,46.2,26.5,30.23,NW,306,2.0,3.0,46,0.00,,,0.00,Wunderground v.1.15,2013-03-11 17:53:00,
2013-03-11 11:54:00,46.3,26.6,30.22,NW,315,1.0,-999.0,46,0.00,,,0.00,Wunderground v.1.15,2013-03-11 17:54:00,
2013-03-11 11:58:00,46.6,27.9,30.22,NNE,21,3.0,5.0,48,0.00,,,0.00,Wunderground v.1.15,2013-03-11 17:58:00,
2013-03-11 11:59:00,46.9,27.2,30.22,NNE,23,2.0,-999.0,46,0.00,,,0.00,Wunderground v.1.15,2013-03-11 17:59:00,
2013-03-11 12:04:00,47.6,27.3,30.22,NNE,16,3.0,3.0,45,0.00,,,0.00,Wunderground v.1.15,2013-03-11 18:04:00,
2013-03-11 12:09:00,47.4,26.0,30.22,NNE,23,1.0,-999.0,43,0.00,,,0.00,Wunderground v.1.15,2013-03-11 18:09:00,
2013-03-11 12:10:00,47.4,26.0,30.22,NNE,15,0.0,2.0,43,0.00,,,0.00,Wunderground v.1.15,2013-03-11 18:10:00,
2013-03-11 12:14:00,47.4,26.6,30.22,NNE,23,1.0,-999.0,44,0.00,,,0.00,Wunderground v.1.15,2013-03-11 18:14:00,
2013-03-11 12:15:00,47.4,26.6,30.22,NNE,15,2.0,4.0,44,0.00,,,0.00,Wunderground v.1.15,2013-03-11 18:15:00,
2013-03-11 12:19:00,47.8,28.0,30.22,SW,225,3.0,-999.0,46,0.00,,,0.00,Wunderground v.1.15,2013-03-11 18:19:00,
2013-03-11 12:20:00,47.7,26.3,30.22,WSW,242,2.0,3.0,43,0.00,,,0.00,Wunderground v.1.15,2013-03-11 18:20:00,
2013-03-11 12:24:00,47.4,26.6,30.21,WNW,293,2.0,-999.0,44,0.00,,,0.00,Wunderground v.1.15,2013-03-11 18:24:00,
2013-03-11 12:26:00,47.4,26.6,30.21,WNW,296,0.0,3.0,44,0.00,,,0.00,Wunderground v.1.15,2013-03-11 18:26:00,
2013-03-11 12:29:00,47.8,27.5,30.20,North,0,4.0,-999.0,45,0.00,,,0.00,Wunderground v.1.15,2013-03-11 18:29:00,
2013-03-11 12:31:00,48.0,27.1,30.21,North,350,3.0,4.0,44,0.00,,,0.00,Wunderground v.1.15,2013-03-11 18:31:00,
2013-03-11 12:36:00,48.5,27.0,30.20,NE,34,6.0,6.0,43,0.00,,,0.00,Wunderground v.1.15,2013-03-11 18:36:00,
2013-03-11 12:39:00,48.4,26.9,30.20,NNE,23,3.0,-999.0,43,0.00,,,0.00,Wunderground v.1.15,2013-03-11 18:39:00,
2013-03-11 12:41:00,48.4,26.9,30.20,NNE,18,2.0,3.0,43,0.00,,,0.00,Wunderground v.1.15,2013-03-11 18:41:00,
2013-03-11 12:44:00,48.3,26.2,30.20,NNE,23,4.0,-999.0,42,0.00,,,0.00,Wunderground v.1.15,2013-03-11 18:44:00,
2013-03-11 12:47:00,48.4,26.3,30.20,North,11,1.0,5.0,42,0.00,,,0.00,Wunderground v.1.15,2013-03-11 18:47:00,
2013-03-11 12:49:00,48.4,26.9,30.20,North,0,1.0,-999.0,43,0.00,,,0.00,Wunderground v.1.15,2013-03-11 18:49:00,
2013-03-11 12:52:00,48.5,27.0,30.20,North,11,0.0,2.0,43,0.00,,,0.00,Wunderground v.1.15,2013-03-11 18:52:00,
2013-03-11 12:54:00,48.3,26.2,30.20,SSW,203,0.0,-999.0,42,0.00,,,0.00,Wunderground v.1.15,2013-03-11 18:54:00,
2013-03-11 12:58:00,48.2,26.2,30.19,SW,229,0.0,3.0,42,0.00,,,0.00,Wunderground v.1.15,2013-03-11 18:58:00,
2013-03-11 12:59:00,48.2,27.3,30.19,SW,225,2.0,-999.0,44,0.00,,,0.00,Wunderground v.1.15,2013-03-11 18:59:00,
2013-03-11 13:03:00,48.5,27.0,30.19,NNE,12,3.0,3.0,43,0.00,,,0.00,Wunderground v.1.15,2013-03-11 19:03:00,
2013-03-11 13:04:00,48.7,27.2,30.19,NW,315,2.0,-999.0,43,0.00,,,0.00,Wunderground v.1.15,2013-03-11 19:04:00,
2013-03-11 13:08:00,49.0,26.9,30.19,NNE,15,2.0,7.0,42,0.00,,,0.00,Wunderground v.1.15,2013-03-11 19:08:00,
2013-03-11 13:09:00,49.0,27.5,30.18,NNE,23,4.0,-999.0,43,0.00,,,0.00,Wunderground v.1.15,2013-03-11 19:09:00,
2013-03-11 13:14:00,48.8,26.7,30.18,NE,49,3.0,5.0,42,0.00,,,0.00,Wunderground v.1.15,2013-03-11 19:14:00,
2013-03-11 13:19:00,48.4,26.3,30.18,NW,319,5.0,6.0,42,0.00,,,0.00,Wunderground v.1.15,2013-03-11 19:19:00,
2013-03-11 13:24:00,48.3,26.2,30.18,NNW,334,3.0,4.0,42,0.00,,,0.00,Wunderground v.1.15,2013-03-11 19:24:00,
2013-03-11 13:29:00,48.4,27.5,30.18,NNW,329,4.0,4.0,44,0.00,,,0.00,Wunderground v.1.15,2013-03-11 19:29:00,
2013-03-11 13:34:00,48.6,27.1,30.18,North,0,2.0,-999.0,43,0.00,,,0.00,Wunderground v.1.15,2013-03-11 19:34:00,
2013-03-11 13:35:00,48.7,27.2,30.18,NW,316,2.0,5.0,43,0.00,,,0.00,Wunderground v.1.15,2013-03-11 19:35:00,
2013-03-11 13:39:00,48.8,26.7,30.18,NW,315,4.0,-999.0,42,0.00,,,0.00,Wunderground v.1.15,2013-03-11 19:39:00,
2013-03-11 13:40:00,48.7,27.2,30.18,West,277,4.0,4.0,43,0.00,,,0.00,Wunderground v.1.15,2013-03-11 19:40:00,
2013-03-11 13:44:00,48.5,27.0,30.18,West,270,0.0,-999.0,43,0.00,,,0.00,Wunderground v.1.15,2013-03-11 19:44:00,
2013-03-11 13:46:00,48.4,26.9,30.18,West,260,2.0,4.0,43,0.00,,,0.00,Wunderground v.1.15,2013-03-11 19:46:00,
2013-03-11 13:49:00,48.6,27.1,30.18,NW,315,2.0,-999.0,43,0.00,,,0.00,Wunderground v.1.15,2013-03-11 19:49:00,
2013-03-11 13:51:00,48.6,27.1,30.17,NW,321,3.0,3.0,43,0.00,,,0.00,Wunderground v.1.15,2013-03-11 19:51:00,
2013-03-11 13:54:00,48.5,27.6,30.17,NW,315,2.0,-999.0,44,0.00,,,0.00,Wunderground v.1.15,2013-03-11 19:54:00,
2013-03-11 13:56:00,48.4,27.5,30.17,NW,326,2.0,6.0,44,0.00,,,0.00,Wunderground v.1.15,2013-03-11 19:56:00,
2013-03-11 13:59:00,48.5,28.1,30.17,NW,315,1.0,-999.0,45,0.00,,,0.00,Wunderground v.1.15,2013-03-11 19:59:00,
2013-03-11 14:02:00,48.8,27.8,30.17,NW,323,0.0,2.0,44,0.00,,,0.00,Wunderground v.1.15,2013-03-11 20:02:00,
2013-03-11 14:04:00,48.8,27.8,30.17,NW,315,1.0,-999.0,44,0.00,,,0.00,Wunderground v.1.15,2013-03-11 20:04:00,
2013-03-11 14:08:00,49.1,29.2,30.17,NNW,330,4.0,4.0,46,0.00,,,0.00,Wunderground v.1.15,2013-03-11 20:08:00,
2013-03-11 14:09:00,49.3,28.8,30.17,NNW,338,3.0,-999.0,45,0.00,,,0.00,Wunderground v.1.15,2013-03-11 20:09:00,
2013-03-11 14:13:00,49.5,27.9,30.16,NW,326,2.0,2.0,43,0.00,,,0.00,Wunderground v.1.15,2013-03-11 20:13:00,
2013-03-11 14:14:00,49.5,27.9,30.16,NW,315,0.0,-999.0,43,0.00,,,0.00,Wunderground v.1.15,2013-03-11 20:14:00,
2013-03-11 14:18:00,49.6,28.6,30.16,NNW,327,2.0,4.0,44,0.00,,,0.00,Wunderground v.1.15,2013-03-11 20:18:00,
2013-03-11 14:19:00,49.7,29.2,30.16,NNW,338,2.0,-999.0,45,0.00,,,0.00,Wunderground v.1.15,2013-03-11 20:19:00,
2013-03-11 14:23:00,50.5,28.8,30.15,NW,326,0.0,3.0,43,0.00,,,0.00,Wunderground v.1.15,2013-03-11 20:23:00,
2013-03-11 14:24:00,50.5,28.8,30.15,N/A,-737280,0.0,-999.0,43,0.00,,,0.00,Wunderground v.1.15,2013-03-11 20:24:00,
2013-03-11 14:28:00,50.8,30.2,30.16,NW,325,4.0,6.0,45,0.00,,,0.00,Wunderground v.1.15,2013-03-11 20:28:00,
2013-03-11 14:29:00,50.9,29.2,30.16,NW,315,6.0,-999.0,43,0.00,,,0.00,Wunderground v.1.15,2013-03-11 20:29:00,
2013-03-11 14:34:00,51.3,29.5,30.15,North,360,1.0,5.0,43,0.00,,,0.00,Wunderground v.1.15,2013-03-11 20:34:00,
2013-03-11 14:39:00,51.5,30.3,30.15,West,270,5.0,-999.0,44,0.00,,,0.00,Wunderground v.1.15,2013-03-11 20:39:00,
2013-03-11 14:40:00,51.6,30.4,30.15,West,275,3.0,9.0,44,0.00,,,0.00,Wunderground v.1.15,2013-03-11 20:40:00,
2013-03-11 14:44:00,51.2,30.0,30.14,WSW,248,1.0,-999.0,44,0.00,,,0.00,Wunderground v.1.15,2013-03-11 20:44:00,
2013-03-11 14:45:00,51.2,29.4,30.14,NNW,340,3.0,8.0,43,0.00,,,0.00,Wunderground v.1.15,2013-03-11 20:45:00,
2013-03-11 14:49:00,51.4,29.6,30.14,NNW,338,3.0,-999.0,43,0.00,,,0.00,Wunderground v.1.15,2013-03-11 20:49:00,
2013-03-11 14:53:00,51.6,29.2,30.14,NE,40,5.0,5.0,42,0.00,,,0.00,Wunderground v.1.15,2013-03-11 20:53:00,
2013-03-11 14:54:00,51.8,30.6,30.14,NNE,23,3.0,-999.0,44,0.00,,,0.00,Wunderground v.1.15,2013-03-11 20:54:00,
2013-03-11 14:59:00,52.6,31.3,30.14,NW,323,7.0,7.0,44,0.00,,,0.00,Wunderground v.1.15,2013-03-11 20:59:00,
2013-03-11 15:04:00,52.8,29.7,30.13,West,270,0.0,5.0,41,0.00,,,0.00,Wunderground v.1.15,2013-03-11 21:04:00,
2013-03-11 15:09:00,52.7,29.6,30.13,NW,315,4.0,-999.0,41,0.00,,,0.00,Wunderground v.1.15,2013-03-11 21:09:00,
2013-03-11 15:10:00,52.7,30.2,30.13,NNW,327,3.0,3.0,42,0.00,,,0.00,Wunderground v.1.15,2013-03-11 21:10:00,
2013-03-11 15:14:00,53.0,29.9,30.13,NW,315,3.0,-999.0,41,0.00,,,0.00,Wunderground v.1.15,2013-03-11 21:14:00,
2013-03-11 15:15:00,53.0,29.9,30.13,NNW,345,4.0,7.0,41,0.00,,,0.00,Wunderground v.1.15,2013-03-11 21:15:00,
2013-03-11 15:19:00,53.2,30.7,30.12,NNW,338,2.0,-999.0,42,0.00,,,0.00,Wunderground v.1.15,2013-03-11 21:19:00,
2013-03-11 15:20:00,53.2,29.5,30.12,NNW,327,1.0,4.0,40,0.00,,,0.00,Wunderground v.1.15,2013-03-11 21:20:00,
2013-03-11 15:24:00,53.3,28.9,30.12,WSW,248,1.0,-999.0,39,0.00,,,0.00,Wunderground v.1.15,2013-03-11 21:24:00,
2013-03-11 15:26:00,53.3,30.2,30.12,North,355,4.0,5.0,41,0.00,,,0.00,Wunderground v.1.15,2013-03-11 21:26:00,
2013-03-11 15:29:00,53.6,29.8,30.12,NW,315,0.0,-999.0,40,0.00,,,0.00,Wunderground v.1.15,2013-03-11 21:29:00,
2013-03-11 15:31:00,53.7,29.9,30.12,NW,311,0.0,2.0,40,0.00,,,0.00,Wunderground v.1.15,2013-03-11 21:31:00,
2013-03-11 15:34:00,54.0,29.6,30.12,NNW,338,3.0,-999.0,39,0.00,,,0.00,Wunderground v.1.15,2013-03-11 21:34:00,
2013-03-11 15:36:00,54.2,29.8,30.11,NNW,336,6.0,6.0,39,0.00,,,0.00,Wunderground v.1.15,2013-03-11 21:36:00,
2013-03-11 15:39:00,54.4,29.3,30.11,West,270,3.0,-999.0,38,0.00,,,0.00,Wunderground v.1.15,2013-03-11 21:39:00,
2013-03-11 15:42:00,54.0,28.9,30.11,WSW,249,0.0,3.0,38,0.00,,,0.00,Wunderground v.1.15,2013-03-11 21:42:00,
2013-03-11 15:44:00,54.0,29.6,30.11,NNW,338,1.0,-999.0,39,0.00,,,0.00,Wunderground v.1.15,2013-03-11 21:44:00,
2013-03-11 15:48:00,54.1,29.0,30.11,WNW,303,1.0,5.0,38,0.00,,,0.00,Wunderground v.1.15,2013-03-11 21:48:00,
2013-03-11 15:49:00,54.1,29.0,30.11,NW,315,6.0,-999.0,38,0.00,,,0.00,Wunderground v.1.15,2013-03-11 21:49:00,
2013-03-11 15:53:00,54.2,29.1,30.11,NNW,343,1.0,5.0,38,0.00,,,0.00,Wunderground v.1.15,2013-03-11 21:53:00,
2013-03-11 15:54:00,54.4,29.3,30.11,NNW,338,3.0,-999.0,38,0.00,,,0.00,Wunderground v.1.15,2013-03-11 21:54:00,
2013-03-11 15:58:00,54.7,29.6,30.11,NNW,344,0.0,6.0,38,0.00,,,0.00,Wunderground v.1.15,2013-03-11 21:58:00,
2013-03-11 15:59:00,54.9,30.4,30.11,NNW,338,1.0,-999.0,39,0.00,,,0.00,Wunderground v.1.15,2013-03-11 21:59:00,
2013-03-11 16:03:00,55.0,29.8,30.10,NNE,31,5.0,6.0,38,0.00,,,0.00,Wunderground v.1.15,2013-03-11 22:03:00,
2013-03-11 16:04:00,55.0,29.2,30.10,NNE,23,2.0,-999.0,37,0.00,,,0.00,Wunderground v.1.15,2013-03-11 22:04:00,
2013-03-11 16:08:00,55.1,29.3,30.11,North,5,3.0,6.0,37,0.00,,,0.00,Wunderground v.1.15,2013-03-11 22:08:00,
2013-03-11 16:09:00,55.0,28.5,30.10,North,0,1.0,-999.0,36,0.00,,,0.00,Wunderground v.1.15,2013-03-11 22:09:00,
2013-03-11 16:13:00,54.5,28.7,30.11,NW,322,2.0,7.0,37,0.00,,,0.00,Wunderground v.1.15,2013-03-11 22:13:00,
2013-03-11 16:14:00,54.2,28.5,30.11,NNW,338,4.0,-999.0,37,0.00,,,0.00,Wunderground v.1.15,2013-03-11 22:14:00,
2013-03-11 16:18:00,53.5,27.8,30.11,North,351,5.0,9.0,37,0.00,,,0.00,Wunderground v.1.15,2013-03-11 22:18:00,
2013-03-11 16:19:00,53.2,28.2,30.10,North,0,4.0,-999.0,38,0.00,,,0.00,Wunderground v.1.15,2013-03-11 22:19:00,
2013-03-11 16:23:00,52.7,28.4,30.11,NE,38,1.0,9.0,39,0.00,,,0.00,Wunderground v.1.15,2013-03-11 22:23:00,
2013-03-11 16:24:00,52.5,28.2,30.11,NNE,23,4.0,-999.0,39,0.00,,,0.00,Wunderground v.1.15,2013-03-11 22:24:00,
2013-03-11 16:28:00,52.1,28.5,30.11,NNE,24,2.0,9.0,40,0.00,,,0.00,Wunderground v.1.15,2013-03-11 22:28:00,
2013-03-11 16:29:00,52.0,28.4,30.11,NNE,23,2.0,-999.0,40,0.00,,,0.00,Wunderground v.1.15,2013-03-11 22:29:00,
2013-03-11 16:33:00,51.9,28.3,30.11,North,355,5.0,5.0,40,0.00,,,0.00,Wunderground v.1.15,2013-03-11 22:33:00,
2013-03-11 16:34:00,51.9,28.3,30.11,North,0,3.0,-999.0,40,0.00,,,0.00,Wunderground v.1.15,2013-03-11 22:34:00,
2013-03-11 16:38:00,51.7,28.1,30.11,North,355,0.0,5.0,40,0.00,,,0.00,Wunderground v.1.15,2013-03-11 22:38:00,
2013-03-11 16:39:00,51.7,27.5,30.11,North,0,0.0,-999.0,39,0.00,,,0.00,Wunderground v.1.15,2013-03-11 22:39:00,
2013-03-11 16:44:00,51.5,27.9,30.10,North,0,3.0,-999.0,40,0.00,,,0.00,Wunderground v.1.15,2013-03-11 22:44:00,
2013-03-11 16:45:00,51.6,28.0,30.10,North,355,2.0,5.0,40,0.00,,,0.00,Wunderground v.1.15,2013-03-11 22:45:00,
2013-03-11 16:49:00,51.8,27.6,30.10,North,0,3.0,-999.0,39,0.00,,,0.00,Wunderground v.1.15,2013-03-11 22:49:00,
2013-03-11 16:50:00,51.8,27.6,30.10,North,350,2.0,2.0,39,0.00,,,0.00,Wunderground v.1.15,2013-03-11 22:50:00,
2013-03-11 16:54:00,52.0,27.8,30.10,North,0,3.0,-999.0,39,0.00,,,0.00,Wunderground v.1.15,2013-03-11 22:54:00,
2013-03-11 16:55:00,52.1,28.5,30.10,North,350,1.0,4.0,40,0.00,,,0.00,Wunderground v.1.15,2013-03-11 22:55:00,
2013-03-11 16:59:00,52.5,28.2,30.10,North,0,2.0,-999.0,39,0.00,,,0.00,Wunderground v.1.15,2013-03-11 22:59:00,
2013-03-11 17:01:00,52.7,27.8,30.10,North,350,1.0,3.0,38,0.00,,,0.00,Wunderground v.1.15,2013-03-11 23:01:00,
2013-03-11 17:04:00,53.1,28.1,30.10,North,0,2.0,-999.0,38,0.00,,,0.00,Wunderground v.1.15,2013-03-11 23:04:00,
2013-03-11 17:06:00,53.1,28.1,30.10,North,355,2.0,4.0,38,0.00,,,0.00,Wunderground v.1.15,2013-03-11 23:06:00,
2013-03-11 17:09:00,53.2,28.2,30.10,North,0,3.0,-999.0,38,0.00,,,0.00,Wunderground v.1.15,2013-03-11 23:09:00,
2013-03-11 17:11:00,53.3,27.7,30.10,North,355,2.0,2.0,37,0.00,,,0.00,Wunderground v.1.15,2013-03-11 23:11:00,
2013-03-11 17:14:00,53.5,27.8,30.10,North,0,2.0,-999.0,37,0.00,,,0.00,Wunderground v.1.15,2013-03-11 23:14:00,
2013-03-11 17:17:00,53.6,27.9,30.09,North,355,1.0,4.0,37,0.00,,,0.00,Wunderground v.1.15,2013-03-11 23:17:00,
2013-03-11 17:19:00,53.6,27.9,30.09,North,0,1.0,-999.0,37,0.00,,,0.00,Wunderground v.1.15,2013-03-11 23:19:00,
2013-03-11 17:23:00,53.8,28.1,30.09,North,355,0.0,2.0,37,0.00,,,0.00,Wunderground v.1.15,2013-03-11 23:23:00,
2013-03-11 17:24:00,53.8,28.1,30.09,North,0,0.0,-999.0,37,0.00,,,0.00,Wunderground v.1.15,2013-03-11 23:24:00,
2013-03-11 17:29:00,54.2,27.8,30.09,North,355,0.0,2.0,36,0.00,,,0.00,Wunderground v.1.15,2013-03-11 23:29:00,
2013-03-11 17:34:00,54.4,28.0,30.09,North,355,2.0,2.0,36,0.00,,,0.00,Wunderground v.1.15,2013-03-11 23:34:00,
2013-03-11 17:39:00,54.4,28.6,30.09,North,355,0.0,3.0,37,0.00,,,0.00,Wunderground v.1.15,2013-03-11 23:39:00,
2013-03-11 17:44:00,54.4,28.6,30.09,North,0,0.0,-999.0,37,0.00,,,0.00,Wunderground v.1.15,2013-03-11 23:44:00,
2013-03-11 17:45:00,54.4,28.6,30.09,North,355,0.0,1.0,37,0.00,,,0.00,Wunderground v.1.15,2013-03-11 23:45:00,
2013-03-11 17:49:00,54.6,28.2,30.09,North,0,1.0,-999.0,36,0.00,,,0.00,Wunderground v.1.15,2013-03-11 23:49:00,
2013-03-11 17:50:00,54.6,27.5,30.08,North,355,0.0,0.0,35,0.00,,,0.00,Wunderground v.1.15,2013-03-11 23:50:00,
2013-03-11 17:54:00,54.6,28.2,30.08,North,0,1.0,-999.0,36,0.00,,,0.00,Wunderground v.1.15,2013-03-11 23:54:00,
2013-03-11 17:55:00,54.6,28.2,30.08,North,355,3.0,3.0,36,0.00,,,0.00,Wunderground v.1.15,2013-03-11 23:55:00,
2013-03-11 17:59:00,54.3,27.9,30.08,North,0,0.0,-999.0,36,0.00,,,0.00,Wunderground v.1.15,2013-03-11 23:59:00,
2013-03-11 18:00:00,54.3,27.9,30.08,North,355,3.0,3.0,36,0.00,,,0.00,Wunderground v.1.15,2013-03-12 00:00:00,
2013-03-11 18:04:00,54.0,27.6,30.08,N/A,-737280,0.0,-999.0,36,0.00,,,0.00,Wunderground v.1.15,2013-03-12 00:04:00,
2013-03-11 18:06:00,53.9,27.5,30.08,North,355,1.0,3.0,36,0.00,,,0.00,Wunderground v.1.15,2013-03-12 00:06:00,
2013-03-11 18:09:00,53.4,27.1,30.08,North,0,0.0,-999.0,36,0.00,,,0.00,Wunderground v.1.15,2013-03-12 00:09:00,
2013-03-11 18:12:00,53.1,27.5,30.08,North,355,1.0,1.0,37,0.00,,,0.00,Wunderground v.1.15,2013-03-12 00:12:00,
2013-03-11 18:14:00,52.9,28.0,30.08,North,0,2.0,-999.0,38,0.00,,,0.00,Wunderground v.1.15,2013-03-12 00:14:00,
2013-03-11 18:17:00,52.6,27.7,30.08,North,355,1.0,3.0,38,0.00,,,0.00,Wunderground v.1.15,2013-03-12 00:17:00,
2013-03-11 18:19:00,52.4,27.5,30.09,North,0,0.0,-999.0,38,0.00,,,0.00,Wunderground v.1.15,2013-03-12 00:19:00,
2013-03-11 18:22:00,52.3,27.4,30.08,North,355,0.0,1.0,38,0.00,,,0.00,Wunderground v.1.15,2013-03-12 00:22:00,
2013-03-11 18:24:00,52.1,27.2,30.08,N/A,-737280,0.0,-999.0,38,0.00,,,0.00,Wunderground v.1.15,2013-03-12 00:24:00,
2013-03-11 18:27:00,51.9,27.7,30.08,North,355,0.0,1.0,39,0.00,,,0.00,Wunderground v.1.15,2013-03-12 00:27:00,
2013-03-11 18:29:00,51.7,28.1,30.08,North,0,1.0,-999.0,40,0.00,,,0.00,Wunderground v.1.15,2013-03-12 00:29:00,
2013-03-11 18:33:00,51.4,27.2,30.08,North,355,0.0,0.0,39,0.00,,,0.00,Wunderground v.1.15,2013-03-12 00:33:00,
2013-03-11 18:34:00,51.3,27.2,30.08,N/A,-737280,0.0,-999.0,39,0.00,,,0.00,Wunderground v.1.15,2013-03-12 00:34:00,
2013-03-11 18:38:00,51.0,27.5,30.08,North,355,0.0,1.0,40,0.00,,,0.00,Wunderground v.1.15,2013-03-12 00:38:00,
2013-03-11 18:39:00,50.9,27.4,30.08,N/A,-737280,0.0,-999.0,40,0.00,,,0.00,Wunderground v.1.15,2013-03-12 00:39:00,
2013-03-11 18:43:00,50.6,27.7,30.08,North,355,0.0,0.0,41,0.00,,,0.00,Wunderground v.1.15,2013-03-12 00:43:00,
2013-03-11 18:44:00,50.5,27.7,30.08,N/A,-737280,0.0,-999.0,41,0.00,,,0.00,Wunderground v.1.15,2013-03-12 00:44:00,
2013-03-11 18:48:00,50.3,28.1,30.08,North,355,0.0,0.0,42,0.00,,,0.00,Wunderground v.1.15,2013-03-12 00:48:00,
2013-03-11 18:49:00,50.2,28.0,30.08,N/A,-737280,0.0,-999.0,42,0.00,,,0.00,Wunderground v.1.15,2013-03-12 00:49:00,
2013-03-11 18:53:00,49.7,28.1,30.08,North,355,0.0,0.0,43,0.00,,,0.00,Wunderground v.1.15,2013-03-12 00:53:00,
2013-03-11 18:54:00,49.6,28.6,30.08,N/A,-737280,0.0,-999.0,44,0.00,,,0.00,Wunderground v.1.15,2013-03-12 00:54:00,
2013-03-11 18:58:00,49.0,28.6,30.09,North,355,0.0,0.0,45,0.00,,,0.00,Wunderground v.1.15,2013-03-12 00:58:00,
2013-03-11 18:59:00,48.9,28.5,30.09,N/A,-737280,0.0,-999.0,45,0.00,,,0.00,Wunderground v.1.15,2013-03-12 00:59:00,
2013-03-11 19:03:00,48.2,28.4,30.09,North,355,2.0,2.0,46,0.00,,,0.00,Wunderground v.1.15,2013-03-12 01:03:00,
2013-03-11 19:04:00,48.0,28.2,30.09,North,0,0.0,-999.0,46,0.00,,,0.00,Wunderground v.1.15,2013-03-12 01:04:00,
2013-03-11 19:08:00,47.4,28.2,30.09,North,355,0.0,2.0,47,0.00,,,0.00,Wunderground v.1.15,2013-03-12 01:08:00,
2013-03-11 19:09:00,47.4,28.2,30.09,N/A,-737280,0.0,-999.0,47,0.00,,,0.00,Wunderground v.1.15,2013-03-12 01:09:00,
2013-03-11 19:14:00,46.9,28.2,30.09,North,0,1.0,-999.0,48,0.00,,,0.00,Wunderground v.1.15,2013-03-12 01:14:00,
2013-03-11 19:15:00,46.7,28.0,30.09,North,355,2.0,2.0,48,0.00,,,0.00,Wunderground v.1.15,2013-03-12 01:15:00,
2013-03-11 19:19:00,46.0,28.4,30.09,N/A,-737280,0.0,-999.0,50,0.00,,,0.00,Wunderground v.1.15,2013-03-12 01:19:00,
2013-03-11 19:20:00,45.9,28.3,30.08,North,355,0.0,1.0,50,0.00,,,0.00,Wunderground v.1.15,2013-03-12 01:20:00,
2013-03-11 19:24:00,45.5,28.4,30.08,N/A,-737280,0.0,-999.0,51,0.00,,,0.00,Wunderground v.1.15,2013-03-12 01:24:00,
2013-03-11 19:25:00,45.4,28.3,30.08,North,355,0.0,1.0,51,0.00,,,0.00,Wunderground v.1.15,2013-03-12 01:25:00,
2013-03-11 19:29:00,45.0,27.9,30.08,North,0,0.0,-999.0,51,0.00,,,0.00,Wunderground v.1.15,2013-03-12 01:29:00,
2013-03-11 19:31:00,45.0,27.9,30.08,North,355,0.0,0.0,51,0.00,,,0.00,Wunderground v.1.15,2013-03-12 01:31:00,
2013-03-11 19:34:00,45.0,27.9,30.08,N/A,-737280,0.0,-999.0,51,0.00,,,0.00,Wunderground v.1.15,2013-03-12 01:34:00,
2013-03-11 19:36:00,44.9,27.8,30.08,North,355,0.0,0.0,51,0.00,,,0.00,Wunderground v.1.15,2013-03-12 01:36:00,
2013-03-11 19:39:00,44.8,27.8,30.08,N/A,-737280,0.0,-999.0,51,0.00,,,0.00,Wunderground v.1.15,2013-03-12 01:39:00,
2013-03-11 19:42:00,44.8,27.8,30.08,North,355,0.0,0.0,51,0.00,,,0.00,Wunderground v.1.15,2013-03-12 01:42:00,
2013-03-11 19:44:00,44.7,27.7,30.08,N/A,-737280,0.0,-999.0,51,0.00,,,0.00,Wunderground v.1.15,2013-03-12 01:44:00,
2013-03-11 19:47:00,44.7,27.7,30.08,North,355,0.0,1.0,51,0.00,,,0.00,Wunderground v.1.15,2013-03-12 01:47:00,
2013-03-11 19:49:00,44.7,28.1,30.08,North,0,0.0,-999.0,52,0.00,,,0.00,Wunderground v.1.15,2013-03-12 01:49:00,
2013-03-11 19:52:00,44.7,28.1,30.08,North,355,0.0,0.0,52,0.00,,,0.00,Wunderground v.1.15,2013-03-12 01:52:00,
2013-03-11 19:54:00,44.7,27.7,30.08,N/A,-737280,0.0,-999.0,51,0.00,,,0.00,Wunderground v.1.15,2013-03-12 01:54:00,
2013-03-11 19:57:00,44.6,28.0,30.08,North,355,0.0,0.0,52,0.00,,,0.00,Wunderground v.1.15,2013-03-12 01:57:00,
2013-03-11 19:59:00,44.5,27.5,30.08,N/A,-737280,0.0,-999.0,51,0.00,,,0.00,Wunderground v.1.15,2013-03-12 01:59:00,
2013-03-11 20:02:00,44.3,27.3,30.08,North,355,0.0,0.0,51,0.00,,,0.00,Wunderground v.1.15,2013-03-12 02:02:00,
2013-03-11 20:04:00,44.2,27.7,30.08,N/A,-737280,0.0,-999.0,52,0.00,,,0.00,Wunderground v.1.15,2013-03-12 02:04:00,
2013-03-11 20:07:00,44.1,27.6,30.08,North,355,0.0,1.0,52,0.00,,,0.00,Wunderground v.1.15,2013-03-12 02:07:00,
2013-03-11 20:09:00,43.9,27.9,30.08,N/A,-737280,0.0,-999.0,53,0.00,,,0.00,Wunderground v.1.15,2013-03-12 02:09:00,
2013-03-11 20:12:00,43.8,27.8,30.08,North,355,0.0,0.0,53,0.00,,,0.00,Wunderground v.1.15,2013-03-12 02:12:00,
2013-03-11 20:14:00,43.8,27.8,30.08,N/A,-737280,0.0,-999.0,53,0.00,,,0.00,Wunderground v.1.15,2013-03-12 02:14:00,
2013-03-11 20:18:00,43.7,27.2,30.08,North,355,0.0,0.0,52,0.00,,,0.00,Wunderground v.1.15,2013-03-12 02:18:00,
2013-03-11 20:19:00,43.7,27.2,30.08,N/A,-737280,0.0,-999.0,52,0.00,,,0.00,Wunderground v.1.15,2013-03-12 02:19:00,
2013-03-11 20:23:00,43.8,27.3,30.09,North,355,0.0,1.0,52,0.00,,,0.00,Wunderground v.1.15,2013-03-12 02:23:00,
2013-03-11 20:24:00,43.8,27.3,30.09,N/A,-737280,0.0,-999.0,52,0.00,,,0.00,Wunderground v.1.15,2013-03-12 02:24:00,
2013-03-11 20:28:00,43.8,27.3,30.09,North,355,0.0,1.0,52,0.00,,,0.00,Wunderground v.1.15,2013-03-12 02:28:00,
2013-03-11 20:29:00,43.9,27.4,30.09,N/A,-737280,0.0,-999.0,52,0.00,,,0.00,Wunderground v.1.15,2013-03-12 02:29:00,
2013-03-11 20:34:00,44.1,28.0,30.09,North,355,0.0,1.0,53,0.00,,,0.00,Wunderground v.1.15,2013-03-12 02:34:00,
2013-03-11 20:39:00,44.4,28.3,30.09,North,355,0.0,1.0,53,0.00,,,0.00,Wunderground v.1.15,2013-03-12 02:39:00,
2013-03-11 20:44:00,44.4,28.3,30.09,N/A,-737280,0.0,-999.0,53,0.00,,,0.00,Wunderground v.1.15,2013-03-12 02:44:00,
2013-03-11 20:49:00,44.4,28.3,30.09,N/A,-737280,0.0,-999.0,53,0.00,,,0.00,Wunderground v.1.15,2013-03-12 02:49:00,
2013-03-11 20:54:00,44.4,28.3,30.09,N/A,-737280,0.0,-999.0,53,0.00,,,0.00,Wunderground v.1.15,2013-03-12 02:54:00,
2013-03-11 20:59:00,44.4,28.3,30.09,N/A,-737280,0.0,-999.0,53,0.00,,,0.00,Wunderground v.1.15,2013-03-12 02:59:00,
2013-03-11 21:04:00,44.4,28.3,30.09,N/A,-737280,0.0,-999.0,53,0.00,,,0.00,Wunderground v.1.15,2013-03-12 03:04:00,
2013-03-11 21:09:00,44.4,28.3,30.09,N/A,-737280,0.0,-999.0,53,0.00,,,0.00,Wunderground v.1.15,2013-03-12 03:09:00,
2013-03-11 21:14:00,44.4,28.3,30.09,N/A,-737280,0.0,-999.0,53,0.00,,,0.00,Wunderground v.1.15,2013-03-12 03:14:00,
2013-03-11 21:19:00,44.4,28.3,30.09,N/A,-737280,0.0,-999.0,53,0.00,,,0.00,Wunderground v.1.15,2013-03-12 03:19:00,
2013-03-11 21:24:00,44.4,28.3,30.09,N/A,-737280,0.0,-999.0,53,0.00,,,0.00,Wunderground v.1.15,2013-03-12 03:24:00,
2013-03-11 21:29:00,44.4,28.3,30.09,N/A,-737280,0.0,-999.0,53,0.00,,,0.00,Wunderground v.1.15,2013-03-12 03:29:00,
2013-03-11 21:34:00,44.4,28.3,30.09,N/A,-737280,0.0,-999.0,53,0.00,,,0.00,Wunderground v.1.15,2013-03-12 03:34:00,
2013-03-11 21:39:00,44.4,28.3,30.09,N/A,-737280,0.0,-999.0,53,0.00,,,0.00,Wunderground v.1.15,2013-03-12 03:39:00,
2013-03-11 21:44:00,44.4,28.3,30.09,N/A,-737280,0.0,-999.0,53,0.00,,,0.00,Wunderground v.1.15,2013-03-12 03:44:00,
2013-03-11 21:49:00,44.4,28.3,30.09,N/A,-737280,0.0,-999.0,53,0.00,,,0.00,Wunderground v.1.15,2013-03-12 03:49:00,
2013-03-11 21:54:00,44.4,28.3,30.09,N/A,-737280,0.0,-999.0,53,0.00,,,0.00,Wunderground v.1.15,2013-03-12 03:54:00,
2013-03-11 21:59:00,44.4,28.3,30.09,N/A,-737280,0.0,-999.0,53,0.00,,,0.00,Wunderground v.1.15,2013-03-12 03:59:00,
2013-03-11 22:04:00,44.4,28.3,30.09,N/A,-737280,0.0,-999.0,53,0.00,,,0.00,Wunderground v.1.15,2013-03-12 04:04:00,
2013-03-11 22:09:00,44.4,28.3,30.09,N/A,-737280,0.0,-999.0,53,0.00,,,0.00,Wunderground v.1.15,2013-03-12 04:09:00,
2013-03-11 22:14:00,44.4,28.3,30.09,N/A,-737280,0.0,-999.0,53,0.00,,,0.00,Wunderground v.1.15,2013-03-12 04:14:00,
2013-03-11 22:19:00,44.4,28.3,30.09,N/A,-737280,0.0,-999.0,53,0.00,,,0.00,Wunderground v.1.15,2013-03-12 04:19:00,
2013-03-11 22:24:00,44.4,28.3,30.09,N/A,-737280,0.0,-999.0,53,0.00,,,0.00,Wunderground v.1.15,2013-03-12 04:24:00,
2013-03-11 22:29:00,44.4,28.3,30.09,N/A,-737280,0.0,-999.0,53,0.00,,,0.00,Wunderground v.1.15,2013-03-12 04:29:00,
2013-03-11 22:34:00,44.4,28.3,30.09,N/A,-737280,0.0,-999.0,53,0.00,,,0.00,Wunderground v.1.15,2013-03-12 04:34:00,
2013-03-11 22:39:00,44.4,28.3,30.09,N/A,-737280,0.0,-999.0,53,0.00,,,0.00,Wunderground v.1.15,2013-03-12 04:39:00,
2013-03-11 22:44:00,44.4,28.3,30.09,N/A,-737280,0.0,-999.0,53,0.00,,,0.00,Wunderground v.1.15,2013-03-12 04:44:00,
2013-03-11 22:49:00,44.4,28.3,30.09,N/A,-737280,0.0,-999.0,53,0.00,,,0.00,Wunderground v.1.15,2013-03-12 04:49:00,
2013-03-11 22:54:00,44.4,28.3,30.09,N/A,-737280,0.0,-999.0,53,0.00,,,0.00,Wunderground v.1.15,2013-03-12 04:54:00,
2013-03-11 22:59:00,44.4,28.3,30.09,N/A,-737280,0.0,-999.0,53,0.00,,,0.00,Wunderground v.1.15,2013-03-12 04:59:00,
2013-03-11 23:04:00,44.4,28.3,30.09,N/A,-737280,0.0,-999.0,53,0.00,,,0.00,Wunderground v.1.15,2013-03-12 05:04:00,
2013-03-11 23:09:00,44.4,28.3,30.09,N/A,-737280,0.0,-999.0,53,0.00,,,0.00,Wunderground v.1.15,2013-03-12 05:09:00,
2013-03-11 23:14:00,44.4,28.3,30.09,N/A,-737280,0.0,-999.0,53,0.00,,,0.00,Wunderground v.1.15,2013-03-12 05:14:00,
2013-03-11 23:19:00,44.4,28.3,30.09,N/A,-737280,0.0,-999.0,53,0.00,,,0.00,Wunderground v.1.15,2013-03-12 05:19:00,
2013-03-11 23:24:00,44.4,28.3,30.09,N/A,-737280,0.0,-999.0,53,0.00,,,0.00,Wunderground v.1.15,2013-03-12 05:24:00,
2013-03-11 23:29:00,44.4,28.3,30.09,N/A,-737280,0.0,-999.0,53,0.00,,,0.00,Wunderground v.1.15,2013-03-12 05:29:00,
2013-03-11 23:34:00,44.4,28.3,30.09,N/A,-737280,0.0,-999.0,53,0.00,,,0.00,Wunderground v.1.15,2013-03-12 05:34:00,
2013-03-11 23:39:00,44.4,28.3,30.09,N/A,-737280,0.0,-999.0,53,0.00,,,0.00,Wunderground v.1.15,2013-03-12 05:39:00,
2013-03-11 23:44:00,44.4,28.3,30.09,N/A,-737280,0.0,-999.0,53,0.00,,,0.00,Wunderground v.1.15,2013-03-12 05:44:00,
2013-03-11 23:49:00,44.4,28.3,30.09,N/A,-737280,0.0,-999.0,53,0.00,,,0.00,Wunderground v.1.15,2013-03-12 05:49:00,
2013-03-11 23:54:00,44.4,28.3,30.09,N/A,-737280,0.0,-999.0,53,0.00,,,0.00,Wunderground v.1.15,2013-03-12 05:54:00,
2013-03-11 23:59:00,44.4,28.3,30.09,N/A,-737280,0.0,-999.0,53,0.00,,,0.00,Wunderground v.1.15,2013-03-12 05:59:00,